• în Republica Moldova
  • Lista ţărilor
  • Pe 7 zile
  • Temperatura apei
  • Hartă satelitară
  • Meteo pe hartă
  • Widget-uri
  • user-avatar
    Intrare

    Meteo pe oră la Shkoder

    Astăzi, 18 August, Vineri

    Timp Temperatura Precipitaţii Vânt Presiune Umiditate
    00:00 +22°C° 0 mm 3 m/s 741 mmHg 64%
    01:00 +22°C° 0 mm 3 m/s 741 mmHg 64%
    02:00 +22°C° 0 mm 3 m/s 741 mmHg 65%
    03:00 +21°C° 0 mm 3 m/s 741 mmHg 65%
    04:00 +21°C° 0 mm 3 m/s 741 mmHg 66%
    05:00 +24°C° 0 mm 3 m/s 741 mmHg 62%
    06:00 +25°C° 0 mm 3 m/s 741 mmHg 57%
    07:00 +27°C° 0 mm 3 m/s 741 mmHg 53%
    08:00 +29°C° 0 mm 3 m/s 741 mmHg 47%
    09:00 +31°C° 0 mm 3 m/s 741 mmHg 40%
    10:00 +34°C° 0 mm 2 m/s 741 mmHg 33%
    11:00 +35°C° 0 mm 3 m/s 741 mmHg 31%
    12:00 +36°C° 0 mm 3 m/s 741 mmHg 29%
    13:00 +36°C° 0 mm 3 m/s 741 mmHg 27%
    14:00 +36°C° 0 mm 3 m/s 741 mmHg 28%
    15:00 +36°C° 0 mm 3 m/s 740 mmHg 29%
    16:00 +35°C° 0 mm 4 m/s 740 mmHg 30%
    17:00 +33°C° 0 mm 3 m/s 740 mmHg 35%
    18:00 +29°C° 0 mm 3 m/s 740 mmHg 41%
    19:00 +27°C° 0 mm 2 m/s 740 mmHg 47%
    20:00 +26°C° 0 mm 2 m/s 740 mmHg 47%
    21:00 +25°C° 0 mm 2 m/s 740 mmHg 47%
    22:00 +25°C° 0 mm 2 m/s 741 mmHg 47%
    23:00 +24°C° 0 mm 2 m/s 741 mmHg 48%

    Mâine, 19 August, Sâmbătă

    Timp Temperatura Precipitaţii Vânt Presiune Umiditate
    00:00 +24°C° 0 mm 2 m/s 741 mmHg 50%
    01:00 +24°C° 0 mm 2 m/s 741 mmHg 51%
    02:00 +23°C° 0 mm 2 m/s 740 mmHg 52%
    03:00 +23°C° 0 mm 2 m/s 740 mmHg 53%
    04:00 +23°C° 0 mm 2 m/s 740 mmHg 54%
    05:00 +25°C° 0 mm 2 m/s 740 mmHg 50%
    06:00 +26°C° 0 mm 1 m/s 740 mmHg 47%
    07:00 +28°C° 0 mm 1 m/s 740 mmHg 44%
    08:00 +30°C° 0 mm 1 m/s 740 mmHg 39%
    09:00 +32°C° 0 mm 1 m/s 740 mmHg 34%
    10:00 +35°C° 0 mm 2 m/s 740 mmHg 30%
    11:00 +36°C° 0 mm 2 m/s 740 mmHg 29%
    12:00 +36°C° 0 mm 3 m/s 740 mmHg 28%
    13:00 +36°C° 0 mm 3 m/s 739 mmHg 27%
    14:00 +36°C° 0 mm 3 m/s 739 mmHg 29%
    15:00 +35°C° 0 mm 3 m/s 739 mmHg 31%
    16:00 +35°C° 0 mm 2 m/s 739 mmHg 33%
    17:00 +31°C° 0 mm 2 m/s 739 mmHg 39%
    18:00 +28°C° 0 mm 1 m/s 739 mmHg 45%
    19:00 +24°C° 0 mm 0 m/s 739 mmHg 52%
    20:00 +25°C° 0 mm 1 m/s 739 mmHg 52%
    21:00 +25°C° 0 mm 1 m/s 739 mmHg 52%
    22:00 +24°C° 0 mm 1 m/s 739 mmHg 52%
    23:00 +24°C° 0 mm 2 m/s 739 mmHg 52%

    Poimâine, 20 August, Duminică

    Timp Temperatura Precipitaţii Vânt Presiune Umiditate
    00:00 +23°C° 0 mm 2 m/s 739 mmHg 52%
    01:00 +23°C° 0 mm 2 m/s 739 mmHg 52%
    02:00 +23°C° 0 mm 2 m/s 739 mmHg 51%
    03:00 +23°C° 0 mm 2 m/s 739 mmHg 51%
    04:00 +21°C° 0 mm 2 m/s 739 mmHg 50%
    05:00 +24°C° 0 mm 2 m/s 739 mmHg 47%
    06:00 +26°C° 0 mm 2 m/s 739 mmHg 44%
    07:00 +27°C° 0 mm 2 m/s 739 mmHg 41%
    08:00 +29°C° 0 mm 2 m/s 739 mmHg 37%
    09:00 +31°C° 0 mm 2 m/s 739 mmHg 33%
    10:00 +34°C° 0 mm 2 m/s 739 mmHg 29%
    11:00 +35°C° 0 mm 2 m/s 739 mmHg 29%
    12:00 +35°C° 0 mm 3 m/s 738 mmHg 29%
    13:00 +36°C° 0 mm 4 m/s 738 mmHg 29%
    14:00 +35°C° 0 mm 3 m/s 738 mmHg 32%
    15:00 +34°C° 0 mm 3 m/s 738 mmHg 35%
    16:00 +32°C° 0 mm 2 m/s 738 mmHg 38%
    17:00 +30°C° 0,1 mm 2 m/s 738 mmHg 45%
    18:00 +27°C° 0,1 mm 1 m/s 738 mmHg 53%
    19:00 +25°C° 0,1 mm 1 m/s 738 mmHg 60%
    20:00 +24°C° 0,4 mm 1 m/s 739 mmHg 65%
    21:00 +24°C° 0,4 mm 2 m/s 739 mmHg 70%
    22:00 +23°C° 0,4 mm 2 m/s 739 mmHg 75%
    23:00 +21°C° 0 mm 3 m/s 739 mmHg 78%

    21 August, Luni

    Timp Temperatura Precipitaţii Vânt Presiune Umiditate
    00:00 +21°C° 0 mm 3 m/s 739 mmHg 81%
    01:00 +20°C° 0 mm 3 m/s 739 mmHg 84%
    02:00 +20°C° 0 mm 3 m/s 739 mmHg 84%
    03:00 +20°C° 0 mm 3 m/s 739 mmHg 84%
    04:00 +19°C° 0 mm 3 m/s 739 mmHg 84%
    05:00 +20°C° 0 mm 4 m/s 739 mmHg 78%
    06:00 +21°C° 0 mm 4 m/s 739 mmHg 71%
    07:00 +22°C° 0 mm 4 m/s 739 mmHg 65%
    08:00 +25°C° 0 mm 4 m/s 739 mmHg 57%
    09:00 +27°C° 0 mm 4 m/s 740 mmHg 49%
    10:00 +28°C° 0 mm 4 m/s 740 mmHg 42%
    11:00 +29°C° 0 mm 4 m/s 739 mmHg 40%
    12:00 +30°C° 0 mm 4 m/s 739 mmHg 37%
    13:00 +30°C° 0 mm 4 m/s 739 mmHg 35%
    14:00 +30°C° 0 mm 4 m/s 738 mmHg 35%
    15:00 +30°C° 0 mm 4 m/s 738 mmHg 36%
    16:00 +30°C° 0 mm 5 m/s 738 mmHg 36%
    17:00 +27°C° 0 mm 4 m/s 739 mmHg 41%
    18:00 +25°C° 0 mm 4 m/s 739 mmHg 46%
    19:00 +22°C° 0 mm 4 m/s 739 mmHg 51%
    20:00 +21°C° 0 mm 4 m/s 740 mmHg 54%
    21:00 +20°C° 0 mm 4 m/s 740 mmHg 56%
    22:00 +19°C° 0 mm 4 m/s 740 mmHg 59%
    23:00 +18°C° 0 mm 4 m/s 740 mmHg 60%

    22 August, Marţi

    Timp Temperatura Precipitaţii Vânt Presiune Umiditate
    00:00 +18°C° 0 mm 4 m/s 740 mmHg 61%
    01:00 +17°C° 0 mm 4 m/s 740 mmHg 62%
    02:00 +17°C° 0 mm 4 m/s 741 mmHg 62%
    03:00 +15°C° 0 mm 4 m/s 741 mmHg 63%
    04:00 +15°C° 0 mm 4 m/s 741 mmHg 64%
    05:00 +18°C° 0 mm 4 m/s 741 mmHg 58%
    06:00 +19°C° 0 mm 4 m/s 741 mmHg 53%
    07:00 +21°C° 0 mm 4 m/s 742 mmHg 48%
    08:00 +23°C° 0 mm 4 m/s 742 mmHg 41%
    09:00 +26°C° 0 mm 3 m/s 742 mmHg 35%
    10:00 +27°C° 0 mm 3 m/s 742 mmHg 28%
    11:00 +28°C° 0 mm 3 m/s 741 mmHg 26%
    12:00 +29°C° 0 mm 3 m/s 741 mmHg 24%
    13:00 +31°C° 0 mm 3 m/s 741 mmHg 22%
    14:00 +30°C° 0 mm 3 m/s 741 mmHg 22%
    15:00 +30°C° 0 mm 4 m/s 740 mmHg 23%
    16:00 +30°C° 0 mm 4 m/s 740 mmHg 24%
    17:00 +28°C° 0 mm 4 m/s 740 mmHg 30%
    18:00 +25°C° 0 mm 4 m/s 741 mmHg 36%
    19:00 +21°C° 0 mm 3 m/s 741 mmHg 42%
    20:00 +20°C° 0 mm 3 m/s 741 mmHg 44%
    21:00 +19°C° 0 mm 3 m/s 741 mmHg 46%
    22:00 +18°C° 0 mm 3 m/s 742 mmHg 48%
    23:00 +18°C° 0 mm 3 m/s 742 mmHg 50%

    23 August, Miercuri

    Timp Temperatura Precipitaţii Vânt Presiune Umiditate
    00:00 +18°C° 0 mm 3 m/s 742 mmHg 52%
    01:00 +17°C° 0 mm 3 m/s 742 mmHg 55%
    02:00 +17°C° 0 mm 3 m/s 742 mmHg 55%
    03:00 +17°C° 0 mm 3 m/s 742 mmHg 55%
    04:00 +16°C° 0 mm 3 m/s 742 mmHg 56%
    05:00 +18°C° 0 mm 3 m/s 742 mmHg 51%
    06:00 +20°C° 0 mm 3 m/s 742 mmHg 47%
    07:00 +22°C° 0 mm 3 m/s 742 mmHg 42%
    08:00 +25°C° 0 mm 2 m/s 742 mmHg 36%
    09:00 +28°C° 0 mm 2 m/s 742 mmHg 29%
    10:00 +30°C° 0 mm 1 m/s 742 mmHg 23%
    11:00 +31°C° 0 mm 2 m/s 742 mmHg 22%
    12:00 +32°C° 0 mm 2 m/s 742 mmHg 20%
    13:00 +34°C° 0 mm 3 m/s 741 mmHg 18%
    14:00 +33°C° 0 mm 3 m/s 741 mmHg 20%
    15:00 +33°C° 0 mm 3 m/s 741 mmHg 21%
    16:00 +33°C° 0 mm 3 m/s 741 mmHg 22%
    17:00 +29°C° 0 mm 2 m/s 741 mmHg 29%
    18:00 +25°C° 0 mm 2 m/s 741 mmHg 36%
    19:00 +22°C° 0 mm 1 m/s 741 mmHg 44%
    20:00 +22°C° 0 mm 1 m/s 741 mmHg 42%
    21:00 +22°C° 0 mm 1 m/s 742 mmHg 41%
    22:00 +21°C° 0 mm 2 m/s 742 mmHg 39%
    23:00 +20°C° 0 mm 2 m/s 742 mmHg 38%
    Arată mai mult